Location: Courçay
(47.2523°N, 0.8761°E)
Time: 07:30:21
(UTC+00:00)

COSMO-SKYMED 1 - Pass Details

Date: 18 November 2025
Orbit: 579 x 581 km, 97.9° (Epoch: 06 December)

Event Time Altitude Azimuth Distance (km) Brightness Sun altitude
Exits shadow 17:26:44 17° 63° (ENE) 1,519 3.9 -11.7°
Maximum altitude 17:28:18 20° 93° (E) 1,357 3.7 -11.9°
Drops below altitude 10° 17:31:22 10° 141° (SE) 1,891 4.8 -12.4°
Sets 17:33:59 0° 159° (SSE) 2,785 5.8 -12.8°
